[[{"header":{"parameterUnit":"m.s-1","parameterCategory":1,"la1":30.2991,"la2":30.254,"lo1":-89.0895,"lo2":-89.0444,"dy":0.0017,"dx":0.0017,"nx":28,"ny":28,"refTime":"2025-03-31T21:00:00:Z","depth":0,"parameterNumber":2,"parameterNumberName":"U-component_of_WINDS"},"data":[0,0,0,0,0,0,0,0,0,0,0,0,0,0,0,0,0,0,0,0,0,0,0,0,0,0,0,0,0,0,0,0,0,0,0,0,0,0,0,0,0,0,0,0,0,0,0,0,0,0,0,0,0,0,0,0,0,0,-3.9299,-3.93,0,-3.939,-3.9392,-3.9393,-3.9399,-3.9398,-3.9397,-3.9396,-3.9491,-3.9494,-3.9497,0,0,0,0,0,0,0,0,0,0,0,0,0,-3.913,-3.9133,-3.9298,-3.93,-3.9301,-3.939,-3.9392,-3.9393,-3.9399,-3.9398,-3.9397,-3.9396,-3.9489,-3.9494,-3.9498,0,0,0,0,0,0,0,0,0,0,0,0,0,-3.9211,-3.9134,-3.9298,-3.9315,-3.9317,-3.939,-3.9392,-3.9393,-3.9399,-3.9398,-3.9396,-3.9395,-3.9488,-3.9493,-3.9498,-3.9561,0,0,-3.9514,-3.9516,0,0,0,0,0,0,0,0,-3.9206,-3.9217,-3.9311,-3.9314,-3.9317,-3.9382,-3.9367,-3.9449,-3.94,-3.9368,-3.9396,-3.9394,-3.9456,-3.9463,-3.9484,-3.9566,-3.957,-3.9515,-3.9518,-3.952,-3.9521,0,0,0,0,0,0,0,-3.92,-3.9213,-3.9335,-3.9313,-3.9316,-3.9318,-3.9328,-3.9382,-3.9419,-3.9371,-3.9372,-3.9382,-3.9457,-3.9479,-3.9486,-3.9571,-3.9514,-3.9519,-3.9522,-3.9524,-3.9709,-3.9711,0,0,0,0,0,0,-3.9191,-3.9208,-3.9332,-3.9338,-3.9256,-3.9322,-3.9333,-3.9362,-3.9419,-3.9426,-3.9384,-3.9382,-3.9471,-3.948,-3.949,-3.9566,-3.952,-3.9525,-3.9528,-3.9707,-3.9709,-3.9711,0,0,0,0,0,0,-3.9188,-3.9202,-3.9328,-3.9273,-3.9289,-3.9327,-3.936,-3.9365,-3.9387,-3.9428,-3.9435,-3.9399,-3.947,-3.9482,-3.9543,-3.957,-3.9527,-3.9532,-3.9705,-3.9708,-3.971,-3.9721,0,0,0,0,0,0,-3.9183,-3.9201,-3.9225,-3.9274,-3.9292,-3.938,-3.9361,-3.9368,-3.9396,-3.9395,-3.9445,-3.9452,-3.947,-3.9536,-3.9548,-3.9576,-3.9536,-3.9703,-3.9706,-3.971,-3.9718,-3.9723,-3.9728,0,0,0,0,0,-3.9177,-3.9224,-3.9226,-3.9241,-3.9323,-3.9381,-3.9392,-3.9412,-3.9398,-3.9422,-3.9449,-3.945,-3.9565,-3.9542,-3.9556,-3.9586,-3.9701,-3.9705,-3.9709,-3.9716,-3.9722,-3.9728,0,0,0,0,0,0,-3.9177,-3.9231,-3.9233,-3.9298,-3.9335,-3.9382,-3.9413,-3.9418,-3.946,-3.9457,-3.948,-3.9491,-3.9552,-3.9575,-3.9548,-3.965,-3.9632,-3.9639,-3.9632,-3.9638,-3.9643,-3.9635,-3.954,0,0,0,0,0,-3.9185,-3.9228,-3.9273,-3.9325,-3.9344,-3.9376,-3.9402,-3.9414,-3.9453,-3.9469,-3.95,-3.9539,-3.9584,-3.9613,-3.9656,-3.9723,-3.9733,-3.975,-3.9755,-3.9759,-3.9764,-3.9801,-3.9809,-3.9725,-3.9725,-3.9725,0,0,-3.9201,-3.9236,-3.9261,-3.9326,-3.9356,-3.94,-3.9389,-3.9436,-3.9469,-3.9476,-3.9535,-3.956,-3.9605,-3.9668,-3.9698,-3.969,-3.979,-3.9764,-3.9767,-3.977,-3.9806,-3.9814,-3.9821,-3.9727,-3.9727,-3.9726,0,0,-3.9252,-3.9283,-3.933,-3.9361,-3.9407,-3.9428,-3.944,-3.9487,-3.9503,-3.9563,-3.957,-3.961,-3.9687,-3.9718,-3.9744,-3.981,-3.9812,-3.9824,-3.9848,-3.9884,-3.989,-3.9896,-3.9919,-3.9926,-3.9829,-3.9829,-3.9829,0,-3.9266,-3.9333,-3.9354,-3.9401,-3.9429,-3.9439,-3.9487,-3.9516,-3.9574,-3.9593,-3.9584,-3.9681,-3.9712,-3.9783,-3.9799,-3.982,-3.9834,-3.9817,-3.9888,-3.9894,-3.99,-3.9921,-3.993,-3.983,-3.983,-3.983,-3.983,0,-3.9347,-3.9393,-3.9426,-3.9481,-3.9514,-3.9561,-3.959,-3.962,-3.963,-3.9653,-3.9714,-3.9752,-3.9803,-3.9821,-3.9831,-3.9894,-3.9888,-3.9883,-3.9864,-3.9908,-3.9929,-3.9937,-3.9832,-3.9831,-3.9831,-3.9831,0,0,-3.9399,-3.9467,-3.9478,-3.9504,-3.9556,-3.9592,-3.9641,-3.9691,-3.9716,-3.9757,-3.9798,-3.9863,-3.9859,-3.9889,-3.9903,-3.9935,-3.9983,-3.9926,-3.9928,-3.9934,-4.0054,-4.0056,-4.0065,-3.9986,-3.9988,-3.9989,-4.005,0,-3.9455,-3.954,-3.9561,-3.9634,-3.9677,-3.9688,-3.973,-3.9767,-3.979,-3.983,-3.9855,-3.9901,-3.9893,-3.9911,-3.9943,-3.997,-4.0007,-3.9967,-4.0023,-4.0025,-4.001,-4.0076,-4.0078,-4.0133,-4.0058,-4.0059,-4.006,0,-3.9531,-3.9573,-3.965,-3.9697,-3.9716,-3.9753,-3.9801,-3.984,-3.9882,-3.9897,-3.9931,-3.9942,-3.9993,-3.9974,-4.0045,-4.0017,-4.0042,-4.0059,-4.0062,-4.0066,-4.0044,-4.008,-4.0151,-4.0159,-4.0073,-4.0072,-4.0071,0,-3.956,-3.9636,-3.9692,-3.9713,-3.977,-3.9796,-3.9821,-3.9862,-3.9891,-3.9934,-3.9953,-4.0001,-4.0027,-4.0064,-4.0089,-4.0073,-4.0157,-4.014,-4.017,-4.017,-4.0186,-4.0184,-4.026,-4.0205,-4.0205,-4.0205,-4.0204,0,-3.9619,-3.9666,-3.9705,-3.9739,-3.9792,-3.9817,-3.9868,-3.9894,-3.993,-3.997,-3.9983,-4.002,-4.0051,-4.0092,-4.0112,-4.0167,-4.0179,-4.0192,-4.0197,-4.019,-4.0188,-4.0205,-4.0201,-4.0207,-4.0206,-4.0206,-4.0206,0,-3.9659,-3.9688,-3.9749,-3.9798,-3.9812,-3.9848,-3.989,-3.9924,-3.9948,-3.9998,-4.0011,-4.0049,-4.0098,-4.0127,-4.0189,-4.0203,-4.0264,-4.0267,-4.0249,-4.025,-4.0278,-4.0275,-4.0366,-4.0379,-4.0317,-4.0317,-4.0318,0,-3.9694,-3.973,-3.9783,-3.981,-3.9836,-3.988,-3.9909,-3.9936,-3.9966,-4.0018,-4.0046,-4.0096,-4.0138,-4.0216,-4.0249,-4.0298,-4.0301,-4.033,-4.0308,-4.0301,-4.03,-4.0297,-4.03,-4.0333,-4.0334,-4.0334,-4.0334,0,-3.9753,-3.9765,-3.9808,-3.9855,-3.989,-3.9929,-3.9968,-3.999,-4.0023,-4.0057,-4.0107,-4.0139,-4.0203,-4.0253,-4.0304,-4.033,-4.0338,-4.0341,-4.0351,-4.0343,-4.0331,-4.0337,-4.0257,-4.0339,-4.0338,-4.0338,-4.0338,-4.0337,-3.9791,-3.9823,-3.9865,-3.9912,-3.9944,-3.998,-4.0014,-4.0042,-4.0085,-4.0139,-4.0152,-4.0205,-4.0248,-4.0317,-4.0345,-4.0388,-4.0383,-4.0396,-4.0399,-4.0402,-4.0402,-4.0326,-4.0397,-4.0397,-4.0397,-4.0397,-4.0397,0,-3.9849,-3.9877,-3.992,-3.9973,-4.001,-4.0015,-4.0058,-4.0089,-4.0135,-4.0174,-4.0215,-4.0273,-4.0322,-4.036,-4.041,-4.0436,-4.0441,-4.0448,-4.0446,-4.0452,-4.0404,-4.039,-4.0444,-4.0444,-4.0444,-4.0444,-4.0444,-4.0444,-3.9883,-3.9938,-3.9956,-4.0027,-4.0055,-4.0107,-4.0131,-4.0164,-4.0196,-4.026,-4.0301,-4.0325,-4.0364,-4.0417,-4.0462,-4.0472,-4.0489,-4.0495,-4.0505,-4.046,-4.0455,-4.045,-4.0437,-4.0499,-4.0499,-4.0549,-4.055,-4.055]},{"header":{"parameterUnit":"m.s-1","parameterCategory":1,"la1":30.2991,"la2":30.254,"lo1":-89.0895,"lo2":-89.0444,"dy":0.0017,"dx":0.0017,"nx":28,"ny":28,"refTime":"2025-03-31T21:00:00:Z","depth":0,"parameterNumber":3,"parameterNumberName":"V-component_of_WINDS"},"data":[0,0,0,0,0,0,0,0,0,0,0,0,0,0,0,0,0,0,0,0,0,0,0,0,0,0,0,0,0,0,0,0,0,0,0,0,0,0,0,0,0,0,0,0,0,0,0,0,0,0,0,0,0,0,0,0,0,0,5.3263,5.3263,0,5.333,5.3331,5.3332,5.3327,5.3326,5.3325,5.3324,5.339,5.3392,5.3395,0,0,0,0,0,0,0,0,0,0,0,0,0,5.3127,5.313,5.3262,5.3263,5.3264,5.333,5.3331,5.3332,5.3327,5.3326,5.3324,5.3323,5.3389,5.3392,5.3395,0,0,0,0,0,0,0,0,0,0,0,0,0,5.3189,5.313,5.3262,5.327,5.3271,5.333,5.3331,5.3332,5.3327,5.3326,5.3324,5.3323,5.3388,5.3392,5.3396,5.3451,0,0,5.3408,5.341,0,0,0,0,0,0,0,0,5.3186,5.3194,5.3268,5.3269,5.3271,5.3319,5.3308,5.3372,5.3328,5.3306,5.3324,5.3322,5.3367,5.3373,5.3389,5.3454,5.3457,5.3408,5.3411,5.3412,5.3414,0,0,0,0,0,0,0,5.3182,5.3191,5.3289,5.3269,5.3271,5.3269,5.3276,5.332,5.3344,5.3307,5.3307,5.3316,5.3367,5.3385,5.339,5.3458,5.3408,5.3412,5.3414,5.3416,5.3576,5.3577,0,0,0,0,0,0,5.3176,5.3188,5.3287,5.3291,5.3224,5.3273,5.3281,5.3305,5.3343,5.3348,5.3317,5.3315,5.3378,5.3385,5.3392,5.3462,5.3412,5.3416,5.3419,5.3574,5.3576,5.3578,0,0,0,0,0,0,5.3173,5.3185,5.3284,5.324,5.3252,5.3277,5.3304,5.3307,5.3324,5.3351,5.3354,5.333,5.3378,5.3387,5.3437,5.3464,5.3418,5.3422,5.3572,5.3574,5.3577,5.3601,0,0,0,0,0,0,5.3169,5.3184,5.3205,5.324,5.3255,5.3329,5.3305,5.3309,5.3332,5.333,5.3364,5.3368,5.3377,5.3431,5.3441,5.3469,5.3425,5.3569,5.3573,5.3576,5.3598,5.3604,5.361,0,0,0,0,0,5.3164,5.3207,5.3206,5.3218,5.3282,5.333,5.3338,5.3349,5.3334,5.3356,5.3373,5.3367,5.346,5.3437,5.3448,5.3477,5.3568,5.3572,5.3576,5.3595,5.3603,5.361,0,0,0,0,0,0,5.3172,5.3212,5.3211,5.3267,5.3296,5.3329,5.3357,5.3356,5.3388,5.3385,5.3396,5.3404,5.3456,5.3471,5.3445,5.3535,5.3512,5.3518,5.3523,5.353,5.3536,5.3532,5.3428,0,0,0,0,0,5.3181,5.3218,5.325,5.3296,5.3311,5.3332,5.3353,5.3359,5.3389,5.34,5.3421,5.3449,5.3485,5.3508,5.3542,5.36,5.3609,5.3626,5.3632,5.3636,5.3642,5.3677,5.3686,5.3591,5.3591,5.3591,0,0,5.3199,5.3225,5.3247,5.3299,5.3322,5.336,5.3342,5.3381,5.341,5.3406,5.3456,5.3473,5.3505,5.3561,5.3586,5.3575,5.3671,5.3642,5.3645,5.3649,5.3682,5.3691,5.3699,5.3594,5.3594,5.3593,0,0,5.3251,5.3273,5.3316,5.3341,5.3377,5.3391,5.3401,5.3436,5.3447,5.3499,5.3497,5.3531,5.3591,5.3616,5.3636,5.3701,5.3698,5.3712,5.3742,5.3776,5.3784,5.3791,5.3816,5.3825,5.3717,5.3717,5.3717,0,5.3268,5.3326,5.3338,5.338,5.3404,5.3404,5.3448,5.347,5.3515,5.3531,5.3519,5.3598,5.3619,5.3682,5.3698,5.3714,5.3727,5.3708,5.3782,5.3789,5.3795,5.382,5.3829,5.3719,5.3719,5.3718,5.3718,0,5.3346,5.3387,5.3417,5.3463,5.349,5.3533,5.3552,5.3577,5.3582,5.3597,5.3651,5.3677,5.3718,5.3733,5.3736,5.3797,5.379,5.378,5.3757,5.3806,5.3829,5.3839,5.3721,5.3721,5.372,5.372,0,0,5.3404,5.3459,5.347,5.3493,5.3534,5.3565,5.3609,5.3651,5.3674,5.3705,5.3743,5.3796,5.3788,5.3811,5.3817,5.3847,5.39,5.3833,5.3834,5.3847,5.3972,5.3981,5.3992,5.3898,5.39,5.3901,5.397,0,5.3462,5.3541,5.3555,5.3623,5.3662,5.3664,5.3702,5.3732,5.3748,5.3783,5.3801,5.384,5.3824,5.3839,5.3868,5.3888,5.3926,5.3882,5.3934,5.3936,5.3928,5.4004,5.4013,5.4076,5.3979,5.3981,5.3982,0,5.354,5.3577,5.365,5.369,5.3707,5.3741,5.3782,5.3816,5.385,5.386,5.3888,5.3891,5.3937,5.3912,5.3977,5.3947,5.3969,5.3982,5.3985,5.3991,5.3963,5.4014,5.4097,5.4107,5.3996,5.3995,5.3994,0,5.3578,5.3645,5.3699,5.3718,5.3764,5.3789,5.3809,5.3842,5.3868,5.3904,5.3921,5.3961,5.3983,5.4014,5.4029,5.4009,5.4093,5.4069,5.4104,5.4104,5.4122,5.4121,5.4212,5.4133,5.4133,5.4133,5.4133,0,5.3642,5.3688,5.3718,5.3751,5.3802,5.3818,5.3868,5.3888,5.3918,5.3955,5.3958,5.3993,5.401,5.4047,5.4059,5.4112,5.4121,5.4131,5.4134,5.4132,5.4131,5.4147,5.4144,5.4136,5.4135,5.4134,5.4134,0,5.3694,5.3715,5.3774,5.3815,5.3826,5.3863,5.3898,5.393,5.3947,5.3995,5.4006,5.4033,5.4078,5.4096,5.4149,5.4157,5.4219,5.4217,5.4209,5.421,5.4245,5.4242,5.435,5.4366,5.4276,5.4276,5.4277,0,5.3734,5.377,5.3816,5.3842,5.3864,5.3905,5.3933,5.395,5.3978,5.4022,5.405,5.4095,5.4132,5.4203,5.4227,5.4269,5.427,5.4305,5.4276,5.4274,5.4273,5.4272,5.4277,5.431,5.4311,5.4312,5.4313,0,5.3805,5.3815,5.3855,5.39,5.3933,5.3968,5.4003,5.4024,5.4046,5.4078,5.4125,5.4154,5.4211,5.4257,5.4301,5.4321,5.4322,5.4322,5.4332,5.4332,5.4326,5.4332,5.4225,5.4319,5.4319,5.4318,5.4318,5.4317,5.3854,5.3887,5.3926,5.3971,5.4,5.4033,5.4067,5.4089,5.4129,5.4179,5.4186,5.4237,5.4273,5.4332,5.4355,5.4395,5.4386,5.4401,5.4405,5.4409,5.4413,5.4319,5.4402,5.4402,5.4402,5.4402,5.4402,0,5.3927,5.3953,5.3994,5.4045,5.4081,5.4079,5.4118,5.4149,5.4194,5.4228,5.4266,5.4322,5.4366,5.4395,5.444,5.4467,5.4469,5.4479,5.4478,5.4483,5.4417,5.4404,5.4477,5.4477,5.4477,5.4477,5.4477,5.4477,5.3969,5.4027,5.4042,5.4114,5.4139,5.419,5.4213,5.4244,5.4272,5.4335,5.4373,5.4392,5.4425,5.4473,5.4515,5.4522,5.4539,5.4551,5.4557,5.4495,5.4487,5.448,5.4468,5.4554,5.4554,5.4621,5.4622,5.4622]}]]